GW5072 Weather Reports


time (UTC)temp
C
wind
direction
speed
KPH
gust
KPH
rain 1hr
cm
rain 24hr
cm
rain mn
cm
humidity
%
barometer
mb
20260902060502 25 215 0.0 1.6 0.00 0.00 0.00 87 1013.9
20260902060016 25 215 0.0 0.0 0.00 0.00 0.00 87 1014.0
20260902055505 25 215 0.0 0.0 0.00 0.00 0.00 87 1014.0
20260902055003 25 215 0.0 0.0 0.00 0.00 0.00 87 1013.9
20260902054514 25 215 0.0 1.6 0.00 0.00 0.00 87 1013.9
20260902054003 25 216 0.0 1.6 0.00 0.00 0.00 87 1014.1
20260902053511 25 212 0.0 0.0 0.00 0.00 0.00 88 1013.9
20260902053012 25 198 0.0 0.0 0.00 0.00 0.00 88 1013.7
20260902052507 25 198 0.0 0.0 0.00 0.00 0.00 88 1013.8
20260902052014 25 198 0.0 0.0 0.00 0.00 0.00 88 1014.1
20260902051506 25 199 0.0 0.0 0.00 0.00 0.00 88 1014.0
20260902051004 25 198 0.0 0.0 0.00 0.00 0.00 88 1014.0
20260902050508 25 196 0.0 1.6 0.00 0.00 0.00 88 1014.1
20260902050009 25 196 0.0 1.6 0.00 0.00 0.00 88 1014.1
20260902045510 25 346 0.0 1.6 0.00 0.00 0.00 88 1013.9
20260902045006 25 13 0.0 0.0 0.00 0.00 0.00 89 1013.9
20260902044504 25 13 0.0 0.0 0.00 0.00 0.00 89 1014.1
20260902044009 25 13 0.0 0.0 0.00 0.00 0.00 89 1013.9
20260902043505 25 13 0.0 0.0 0.00 0.00 0.00 89 1014.0
20260902043003 25 13 0.0 0.0 0.00 0.00 0.00 89 1014.0
20260902042508 25 13 0.0 0.0 0.00 0.00 0.00 89 1014.1
20260902042003 25 13 0.0 0.0 0.00 0.00 0.00 89 1014.2
20260902041522 25 13 0.0 0.0 0.00 0.00 0.00 89 1014.1
20260902041006 25 13 0.0 0.0 0.00 0.00 0.00 89 1014.4
20260902040503 25 13 0.0 0.0 0.00 0.00 0.00 89 1014.3
20260902040019 25 13 0.0 0.0 0.00 0.00 0.00 89 1014.4
20260902035503 25 13 0.0 0.0 0.00 0.00 0.00 89 1014.4
20260902035016 25 13 0.0 0.0 0.00 0.00 0.00 90 1014.3
20260902034514 25 13 0.0 0.0 0.00 0.00 0.00 90 1014.3
20260902034002 25 13 0.0 0.0 0.00 0.00 0.00 90 1014.3
20260902033511 25 13 0.0 0.0 0.00 0.00 0.00 89 1014.4
20260902033019 25 13 0.0 0.0 0.00 0.00 0.00 89 1014.4
20260902032506 25 13 0.0 0.0 0.00 0.00 0.00 89 1014.4
20260902032019 25 13 0.0 0.0 0.00 0.00 0.00 89 1014.3
20260902031509 25 13 0.0 0.0 0.00 0.00 0.00 88 1014.3
20260902031013 25 13 0.0 0.0 0.00 0.00 0.00 88 1014.3
20260902030508 25 13 0.0 0.0 0.00 0.00 0.00 88 1014.2
20260902030008 25 13 0.0 0.0 0.00 0.00 0.00 88 1014.2
20260902025515 25 13 0.0 0.0 0.00 0.00 0.00 87 1014.1
20260902025004 25 13 0.0 0.0 0.00 0.00 0.00 87 1014.0
20260902024506 25 13 0.0 0.0 0.00 0.00 0.00 87 1014.0
20260902024009 26 13 0.0 0.0 0.00 0.00 0.00 87 1013.9
20260902023504 26 13 0.0 0.0 0.00 0.00 0.00 86 1013.9
20260902023024 26 13 0.0 0.0 0.00 0.00 0.00 86 1013.8
20260902022512 26 13 0.0 0.0 0.00 0.00 0.00 86 1013.7
20260902022003 26 13 0.0 0.0 0.00 0.00 0.00 86 1013.5
20260902021527 26 13 0.0 0.0 0.00 0.00 0.00 85 1013.5
20260902021007 26 13 0.0 0.0 0.00 0.00 0.00 85 1013.4
20260902020513 26 13 0.0 0.0 0.00 0.00 0.00 85 1013.4
20260902020025 26 13 0.0 0.0 0.00 0.00 0.00 85 1013.4
20260902015504 26 13 0.0 0.0 0.00 0.00 0.00 85 1013.2
20260902015015 26 13 0.0 0.0 0.00 0.00 0.00 84 1013.1
20260902014518 26 13 0.0 0.0 0.00 0.00 0.00 84 1013.1
20260902014003 26 13 0.0 0.0 0.00 0.00 0.00 83 1013.1
20260902013511 26 13 0.0 0.0 0.00 0.00 0.00 83 1013.1
20260902013016 26 13 0.0 0.0 0.00 0.00 0.00 83 1013.0
20260902012515 26 14 0.0 0.0 0.00 0.00 0.00 82 1013.0
20260902012016 26 14 0.0 0.0 0.00 0.00 0.00 82 1012.8
20260902011511 26 14 0.0 0.0 0.00 0.00 0.00 81 1012.8
20260902011013 27 14 0.0 0.0 0.00 0.00 0.00 81 1012.9
20260902010507 27 14 0.0 0.0 0.00 0.00 0.00 81 1013.0
20260902010011 27 14 0.0 1.6 0.00 0.00 0.00 81 1013.0
20260902005517 27 14 0.0 1.6 0.00 0.00 0.00 81 1013.0
20260902005009 27 73 0.0 0.0 0.00 0.00 0.00 81 1013.1
20260902004528 27 74 0.0 0.0 0.00 0.00 0.00 81 1013.2
20260902004009 27 74 0.0 0.0 0.00 0.00 0.00 81 1013.3
20260902003505 27 74 0.0 0.0 0.00 0.00 0.00 81 1013.3
20260902003031 27 74 0.0 0.0 0.00 0.00 0.00 81 1013.4
20260902002507 27 73 0.0 0.0 0.00 0.00 0.00 81 1013.4
20260902002004 27 74 0.0 0.0 0.00 0.00 0.00 81 1013.2
20260902001524 27 73 0.0 0.0 0.00 0.00 0.00 81 1013.1
20260902001007 27 75 0.0 0.0 0.00 0.00 0.00 82 1013.1
20260902000513 27 75 0.0 0.0 0.00 0.00 0.00 82 1013.0
20260902000019 27 75 0.0 0.0 0.00 0.00 0.00 82 1013.1
20260901235504 27 75 0.0 0.0 0.00 0.00 0.00 83 1013.1
20260901235015 27 75 0.0 0.0 0.00 0.00 0.00 83 1013.2
20260901234516 27 74 0.0 0.0 0.00 0.00 0.00 83 1013.2
20260901234013 27 74 0.0 0.0 0.00 0.00 0.00 83 1013.3
20260901233509 27 74 0.0 1.6 0.00 0.00 0.00 83 1013.3
20260901233027 26 75 0.0 1.6 0.00 0.00 0.00 82 1013.2
20260901232514 27 72 0.0 1.6 0.00 0.00 0.00 82 1013.2
20260901232012 27 76 0.0 1.6 0.00 0.00 0.00 82 1013.2
20260901231513 27 76 0.0 1.6 0.00 0.00 0.00 81 1013.4
20260901231012 27 77 0.0 0.0 0.00 0.00 0.00 81 1013.5
20260901230509 27 77 0.0 1.6 0.00 0.00 0.00 79 1013.6
20260901230033 27 77 0.0 1.6 0.00 0.00 0.00 78 1013.6
20260901225513 27 82 0.0 3.2 0.00 0.00 0.00 76 1013.5
20260901225009 27 90 0.0 3.2 0.00 0.00 0.00 74 1013.7
20260901224536 28 79 0.0 3.2 0.00 0.00 0.00 73 1013.7
20260901224012 28 65 0.0 4.8 0.00 0.00 0.00 71 1013.8
20260901223505 29 93 0.0 4.8 0.00 0.00 0.00 70 1013.9
20260901223029 30 93 0.0 4.8 0.00 0.00 0.00 70 1013.8
20260901222510 30 76 0.0 6.4 0.00 0.00 0.00 68 1014.0
20260901222016 30 117 0.0 6.4 0.00 0.00 0.00 66 1014.0
20260901221527 31 110 1.6 9.7 0.00 0.00 0.00 63 1014.0
20260901221008 32 124 1.6 9.7 0.00 0.00 0.00 60 1014.0
20260901220515 33 76 0.0 1.6 0.00 0.00 0.00 57 1013.6
20260901220024 33 91 0.0 1.6 0.00 0.00 0.00 56 1013.5
20260901215506 33 89 0.0 1.6 0.00 0.00 0.00 57 1013.4
20260901215016 33 78 0.0 1.6 0.00 0.00 0.00 56 1013.5
20260901214519 33 42 0.0 1.6 0.00 0.00 0.00 56 1013.4
20260901214017 33 278 0.0 3.2 0.00 0.00 0.00 55 1013.5
20260901213512 33 319 0.0 3.2 0.00 0.00 0.00 55 1013.5
20260901213021 33 202 0.0 3.2 0.00 0.00 0.00 54 1013.4
20260901212514 33 306 0.0 3.2 0.00 0.00 0.00 54 1013.5
20260901212010 33 98 0.0 3.2 0.00 0.00 0.00 54 1013.6
20260901211533 34 271 0.0 1.6 0.00 0.00 0.00 54 1013.5
20260901211017 34 98 0.0 3.2 0.00 0.00 0.00 53 1013.5
20260901210511 35 86 0.0 3.2 0.00 0.00 0.00 52 1013.4
20260901210029 35 82 0.0 3.2 0.00 0.00 0.00 50 1013.5
20260901205512 35 31 0.0 3.2 0.00 0.00 0.00 52 1013.5
20260901205010 35 36 0.0 4.8 0.00 0.00 0.00 53 1013.4
20260901204529 35 94 0.0 4.8 0.00 0.00 0.00 52 1013.6
20260901204015 35 43 0.0 4.8 0.00 0.00 0.00 53 1013.6
20260901203516 35 97 1.6 4.8 0.00 0.00 0.00 54 1013.7
20260901203027 35 122 0.0 8.0 0.00 0.00 0.00 57 1013.8
20260901202513 35 89 1.6 8.0 0.00 0.00 0.00 57 1013.8
20260901202014 35 266 0.0 11.3 0.00 0.00 0.00 57 1014.0
20260901201526 35 27 0.0 11.3 0.00 0.00 0.00 57 1014.0
20260901201006 35 280 0.0 3.2 0.00 0.00 0.00 59 1014.3
20260901200517 34 58 0.0 1.6 0.00 0.00 0.00 61 1014.5
20260901200027 34 95 0.0 1.6 0.00 0.00 0.00 61 1014.5
20260901195518 34 308 0.0 3.2 0.00 0.00 0.00 61 1014.8
20260901195022 33 332 0.0 3.2 0.00 0.00 0.00 63 1014.9
20260901194523 33 288 0.0 3.2 0.00 0.00 0.00 64 1015.0
20260901194017 32 226 0.0 1.6 0.00 0.00 0.00 66 1015.0
20260901193514 32 57 0.0 3.2 0.00 0.00 0.00 67 1015.0
20260901193034 32 86 0.0 3.2 0.00 0.00 0.00 65 1014.9
20260901192515 32 295 0.0 3.2 0.00 0.00 0.00 65 1014.9
20260901192013 32 328 0.0 3.2 0.00 0.00 0.00 66 1014.9
20260901191539 32 279 0.0 3.2 0.00 0.00 0.00 66 1015.0
20260901191016 32 329 0.0 1.6 0.00 0.00 0.00 67 1015.0
20260901190510 32 322 0.0 1.6 0.00 0.00 0.00 67 1014.9
20260901190039 32 340 0.0 1.6 0.00 0.00 0.00 67 1014.9
20260901185516 31 322 0.0 1.6 0.00 0.00 0.00 67 1015.0
20260901185018 31 348 0.0 3.2 0.00 0.00 0.00 68 1015.0
20260901184535 31 353 0.0 3.2 0.00 0.00 0.00 68 1015.1
20260901184014 31 10 0.0 1.6 0.00 0.00 0.00 69 1015.1
20260901183519 31 271 0.0 4.8 0.00 0.00 0.00 69 1015.2
20260901183034 31 276 0.0 4.8 0.00 0.00 0.00 70 1015.2
20260901182512 31 319 0.0 1.6 0.00 0.00 0.00 71 1015.4
20260901182019 31 61 0.0 1.6 0.00 0.00 0.00 70 1015.6
20260901181531 31 321 0.0 1.6 0.00 0.00 0.00 70 1015.6
20260901181016 31 317 0.0 0.0 0.00 0.00 0.00 70 1015.6
20260901180516 31 317 0.0 1.6 0.00 0.00 0.00 70 1015.6
20260901180026 31 318 0.0 1.6 0.00 0.00 0.00 71 1015.7
20260901175522 31 238 0.0 1.6 0.00 0.00 0.00 69 1015.7
20260901175015 31 57 0.0 1.6 0.00 0.00 0.00 72 1015.9
20260901174538 31 58 0.0 1.6 0.00 0.00 0.00 72 1016.0
20260901174018 30 316 0.0 1.6 0.00 0.00 0.00 73 1016.0
20260901173513 30 283 0.0 1.6 0.00 0.00 0.00 72 1016.2
20260901173035 30 56 0.0 1.6 0.00 0.00 0.00 73 1016.3
20260901172514 30 274 0.0 1.6 0.00 0.00 0.00 74 1016.4
20260901172013 30 53 0.0 1.6 0.00 0.00 0.00 75 1016.5
20260901171540 30 91 0.0 1.6 0.00 0.00 0.00 76 1016.7
20260901171014 30 102 0.0 3.2 0.00 0.00 0.00 75 1016.7
20260901170517 30 116 0.0 3.2 0.00 0.00 0.00 77 1016.7
20260901170005 30 318 0.0 3.2 0.00 0.00 0.00 77 1017.0
20260901165505 30 269 0.0 1.6 0.00 0.00 0.00 77 1017.0
20260901165004 30 51 0.0 1.6 0.00 0.00 0.00 78 1017.0
20260901164505 30 325 0.0 1.6 0.00 0.00 0.00 78 1017.0
20260901164003 30 328 0.0 3.2 0.00 0.00 0.00 77 1016.9
20260901163503 30 328 0.0 4.8 0.00 0.00 0.00 77 1016.8
20260901163004 30 18 0.0 4.8 0.00 0.00 0.00 77 1016.9
20260901162502 30 355 0.0 4.8 0.00 0.00 0.00 77 1016.8
20260901162002 30 358 1.6 4.8 0.00 0.00 0.00 77 1016.7
20260901161511 29 320 0.0 1.6 0.00 0.00 0.00 78 1016.7
20260901161004 29 91 0.0 1.6 0.00 0.00 0.00 78 1016.8
20260901160507 29 331 0.0 1.6 0.00 0.00 0.00 78 1016.7
20260901160007 29 333 0.0 1.6 0.00 0.00 0.00 79 1016.6
20260901155503 29 302 0.0 1.6 0.00 0.00 0.00 79 1016.6
20260901155003 29 319 0.0 1.6 0.00 0.00 0.00 79 1016.7
20260901154505 28 297 0.0 1.6 0.00 0.00 0.00 78 1016.7
20260901154004 28 89 0.0 4.8 0.00 0.00 0.00 78 1016.7
20260901153506 28 319 0.0 4.8 0.00 0.00 0.00 78 1016.6
20260901153006 28 1 0.0 3.2 0.00 0.00 0.00 79 1016.7
20260901152503 28 258 0.0 4.8 0.00 0.00 0.00 79 1016.7
20260901152003 28 330 0.0 4.8 0.00 0.00 0.00 80 1016.7
20260901151505 28 337 0.0 3.2 0.00 0.00 0.00 80 1016.8
20260901151003 28 359 0.0 3.2 0.00 0.00 0.00 81 1016.7
20260901150504 28 307 0.0 3.2 0.00 0.00 0.00 82 1016.8
20260901150007 28 260 0.0 1.6 0.00 0.00 0.00 84 1016.8
20260901145504 27 335 0.0 1.6 0.00 0.00 0.00 86 1016.8
20260901145004 27 322 0.0 1.6 0.00 0.00 0.00 87 1016.9
20260901144515 27 330 0.0 1.6 0.00 0.00 0.00 88 1016.9
20260901144007 27 360 0.0 1.6 0.00 0.00 0.00 88 1016.8
20260901143503 27 320 0.0 1.6 0.00 0.00 0.00 89 1016.9
20260901143005 26 226 0.0 1.6 0.00 0.00 0.00 90 1016.9
20260901142505 26 205 0.0 0.0 0.00 0.00 0.00 91 1016.9
20260901142004 26 205 0.0 0.0 0.00 0.00 0.00 92 1016.9
20260901141506 26 22 0.0 0.0 0.00 0.00 0.00 92 1016.9
20260901141003 26 23 0.0 0.0 0.00 0.00 0.00 93 1016.9
20260901140504 25 23 0.0 0.0 0.00 0.00 0.00 95 1016.9
20260901140005 25 23 0.0 0.0 0.00 0.00 0.00 95 1016.9
20260901135504 25 21 0.0 0.0 0.00 0.00 0.00 96 1016.9
20260901135004 25 41 0.0 1.6 0.00 0.00 0.00 96 1016.9
20260901134509 24 41 0.0 1.6 0.00 0.00 0.00 96 1016.9
20260901134003 24 41 0.0 0.0 0.00 0.00 0.00 96 1016.8
20260901133503 24 41 0.0 0.0 0.00 0.00 0.00 96 1016.7
20260901133011 24 41 0.0 0.0 0.00 0.00 0.00 96 1016.7
20260901132504 24 41 0.0 0.0 0.00 0.00 0.00 96 1016.9
20260901132004 23 41 0.0 0.0 0.00 0.00 0.00 96 1016.8
20260901131510 23 41 0.0 0.0 0.00 0.00 0.00 96 1016.6
20260901131006 23 41 0.0 0.0 0.00 0.00 0.00 96 1016.5
20260901130506 23 41 0.0 0.0 0.00 0.00 0.00 96 1016.5
20260901130011 23 41 0.0 0.0 0.00 0.00 0.00 95 1016.5
20260901125503 23 41 0.0 0.0 0.00 0.00 0.00 95 1016.4
20260901125004 23 41 0.0 0.0 0.00 0.00 0.00 95 1016.4
20260901124512 23 41 0.0 0.0 0.00 0.00 0.00 95 1016.3
20260901124004 23 41 0.0 0.0 0.00 0.00 0.00 95 1016.2
20260901123505 23 41 0.0 0.0 0.00 0.00 0.00 95 1016.2
20260901123014 23 41 0.0 0.0 0.00 0.00 0.00 95 1016.2
20260901122506 23 41 0.0 0.0 0.00 0.00 0.00 95 1016.1
20260901122005 23 41 0.0 0.0 0.00 0.00 0.00 95 1016.0
20260901121507 23 41 0.0 0.0 0.00 0.00 0.00 95 1016.0
20260901121008 23 41 0.0 0.0 0.00 0.00 0.00 95 1015.9
20260901120505 23 41 0.0 0.0 0.00 0.00 0.00 95 1015.9
20260901120012 23 41 0.0 0.0 0.00 0.00 0.00 95 1015.9
20260901115507 23 41 0.0 0.0 0.00 0.00 0.00 95 1015.8
20260901115007 23 41 0.0 0.0 0.00 0.00 0.00 95 1015.8
20260901114512 23 41 0.0 0.0 0.00 0.00 0.00 95 1015.7
20260901114007 23 41 0.0 0.0 0.00 0.00 0.00 94 1015.8
20260901113508 23 41 0.0 0.0 0.00 0.00 0.00 94 1015.8
20260901113012 23 41 0.0 0.0 0.00 0.00 0.00 94 1015.7
20260901112507 23 41 0.0 0.0 0.00 0.00 0.00 94 1015.6
20260901112009 23 41 0.0 0.0 0.00 0.00 0.00 94 1015.7
20260901111515 23 41 0.0 0.0 0.00 0.00 0.00 94 1015.7
20260901111011 23 41 0.0 0.0 0.00 0.00 0.00 94 1015.7
20260901110506 23 41 0.0 0.0 0.00 0.00 0.00 94 1015.6
20260901110028 23 41 0.0 0.0 0.00 0.00 0.00 94 1015.7
20260901105504 23 41 0.0 0.0 0.00 0.00 0.00 94 1015.6
20260901105008 23 41 0.0 0.0 0.00 0.00 0.00 94 1015.6
20260901104516 23 41 0.0 0.0 0.00 0.00 0.00 94 1015.6
20260901104004 23 41 0.0 0.0 0.00 0.00 0.00 94 1015.5
20260901103507 23 41 0.0 0.0 0.00 0.00 0.00 94 1015.5
20260901103016 23 41 0.0 0.0 0.00 0.00 0.00 93 1015.5
20260901102504 23 41 0.0 0.0 0.00 0.00 0.00 93 1015.5
20260901102009 23 41 0.0 0.0 0.00 0.00 0.00 93 1015.5
20260901101522 23 41 0.0 0.0 0.00 0.00 0.00 93 1015.5
20260901101011 23 41 0.0 0.0 0.00 0.00 0.00 93 1015.4
20260901100507 23 41 0.0 0.0 0.00 0.00 0.00 94 1015.3
20260901100004 23 41 0.0 0.0 0.00 0.00 0.00 93 1015.4
20260901095508 23 41 0.0 0.0 0.00 0.00 0.00 93 1015.4
20260901095004 23 41 0.0 0.0 0.00 0.00 0.00 94 1015.4
20260901094503 23 41 0.0 0.0 0.00 0.00 0.00 93 1015.4
20260901094008 23 41 0.0 0.0 0.00 0.00 0.00 93 1015.4
20260901093503 23 41 0.0 0.0 0.00 0.00 0.00 93 1015.4
20260901093019 23 41 0.0 0.0 0.00 0.00 0.00 93 1015.4
20260901092509 23 41 0.0 0.0 0.00 0.00 0.00 93 1015.5
20260901092003 23 41 0.0 0.0 0.00 0.00 0.00 92 1015.3
20260901091518 23 41 0.0 0.0 0.00 0.00 0.00 92 1015.4
20260901091004 23 41 0.0 0.0 0.00 0.00 0.00 92 1015.5
20260901090511 24 41 0.0 0.0 0.00 0.00 0.00 92 1015.5
20260901090020 24 41 0.0 0.0 0.00 0.00 0.00 92 1015.5
20260901085504 24 41 0.0 0.0 0.00 0.00 0.00 92 1015.6
20260901085012 24 41 0.0 0.0 0.00 0.00 0.00 92 1015.6
20260901084518 24 41 0.0 0.0 0.00 0.00 0.00 92 1015.7
20260901084003 24 41 0.0 0.0 0.00 0.00 0.00 92 1015.7
20260901083510 24 41 0.0 0.0 0.00 0.00 0.00 92 1015.6
20260901083015 24 41 0.0 0.0 0.00 0.00 0.00 92 1015.6
20260901082512 24 41 0.0 0.0 0.00 0.00 0.00 92 1015.8
20260901082011 24 41 0.0 0.0 0.00 0.00 0.00 92 1015.8
20260901081511 24 41 0.0 0.0 0.00 0.00 0.00 92 1015.6
20260901081011 24 41 0.0 0.0 0.00 0.00 0.00 91 1015.7
20260901080507 24 41 0.0 0.0 0.00 0.00 0.00 91 1015.8
20260901080007 24 41 0.0 0.0 0.00 0.00 0.00 91 1015.9
20260901075512 24 41 0.0 0.0 0.00 0.00 0.00 91 1015.8
20260901075007 24 41 0.0 0.0 0.00 0.00 0.00 91 1015.8
20260901074526 24 41 0.0 0.0 0.00 0.00 0.00 91 1015.9
20260901074011 24 41 0.0 0.0 0.00 0.00 0.00 90 1015.9
20260901073504 25 41 0.0 0.0 0.00 0.00 0.00 90 1015.8
20260901073026 25 41 0.0 0.0 0.00 0.00 0.00 90 1015.8
20260901072509 25 41 0.0 0.0 0.00 0.00 0.00 90 1015.9
20260901072015 25 41 0.0 0.0 0.00 0.00 0.00 90 1015.9
20260901071528 25 41 0.0 0.0 0.00 0.00 0.00 90 1015.9
20260901071007 25 41 0.0 0.0 0.00 0.00 0.00 90 1015.9
20260901070511 25 41 0.0 0.0 0.00 0.00 0.00 90 1015.8
20260901070023 25 41 0.0 0.0 0.00 0.00 0.00 89 1015.7
20260901065504 25 41 0.0 0.0 0.00 0.00 0.00 89 1015.8
20260901065019 25 41 0.0 0.0 0.00 0.00 0.00 89 1015.8
20260901064535 25 41 0.0 0.0 0.00 0.00 0.00 89 1015.8
20260901064014 25 41 0.0 0.0 0.00 0.00 0.00 89 1015.8
20260901063512 25 41 0.0 0.0 0.00 0.00 0.00 89 1015.9
20260901063025 25 41 0.0 0.0 0.00 0.00 0.00 88 1015.9
20260901062512 25 41 0.0 0.0 0.00 0.00 0.00 88 1015.9
20260901062010 25 41 0.0 0.0 0.00 0.00 0.00 88 1015.9
20260901061510 25 41 0.0 0.0 0.00 0.00 0.00 88 1016.0
20260901061017 25 41 0.0 0.0 0.00 0.00 0.00 88 1016.0